Regional Weather Roundup
Issued by NWS

Home | Current Version | Previous Version | Graphics & Text | Print | Product List | Glossary Off
Versions: 1 2 3 4 5 6 7 8 9 10 11 12 13 14 15 16 17 18 19 20 21 22 23 24 25 26 27 28 29 30 31 32 33 34 35 36 37 38 39 40 41 42 43

000
ASUS45 KBOU 262207
RWRCO

WEATHER ROUNDUP FOR COLORADO
NATIONAL WEATHER SERVICE DENVER/BOULDER CO
300 PM MST FRI DEC 26 2014

NOTE: "FAIR" INDICATES FEW OR NO CLOUDS BELOW 12000 FEET WITH NO
SIGNIFICANT WEATHER AND/OR OBSTRUCTIONS TO VISIBILITY.

COZ001>005-013-030-031-262300-
...NORTHWEST COLORADO...

CITY           SKY/WX    TMP DP  RH WIND       PRES   REMARKS
CRAIG          LGT SNOW  18  13  80 W13       29.87R WCI   5
HAYDEN         PTSUNNY   16  10  79 W10       29.83R WCI   3
MEEKER         CLOUDY    20  13  74 SW12      29.85R WCI   8
MOUNT WERNER   NOT AVBL
STEAMBOAT SPGS CLOUDY    16  11  83 CALM      29.81R
WALDEN         CLOUDY    12   7  79 NW9       29.75R WCI   0
$$

COZ006>008-011-262300-
...WEST CENTRAL VALLEYS...

CITY           SKY/WX    TMP DP  RH WIND       PRES   REMARKS
GRAND JUNCTION CLOUDY    27  20  75 NW12      29.88R WCI  17
MONTROSE       CLOUDY    28  19  69 NW14      29.84R WCI  17
EAGLE          PTSUNNY   27  18  69 W9        29.77R WCI  17
RIFLE          CLOUDY    25  13  60 NW15      29.85R WCI  13
DELTA          PTSUNNY   37  20  50 NE6       29.81R
NUCLA          CLOUDY    28  18  64 W14       29.87R WCI  17
$$

COZ017>023-064>068-262300-
...SOUTHWEST COLORADO...

CITY           SKY/WX    TMP DP  RH WIND       PRES   REMARKS
DURANGO        PTSUNNY   25  16  68 W18       29.77R WCI  11
CORTEZ         MOSUNNY   28  20  71 W10       29.84R WCI  19
PAGOSA SPRINGS LGT SNOW  23  19  86 SW12G18   29.74R VSB 1   WCI  11
TELLURIDE      LGT SNOW  18  12  77 W16       29.73R WCI   3
WOLF CREEK PAS CLOUDY     3   1  92 MISG      29.61R
$$

COZ009-010-012-014-032>034-037-058>063-262300-
...CENTRAL COLORADO...

CITY           SKY/WX    TMP DP  RH WIND       PRES   REMARKS
ASPEN          CLOUDY    20  13  74 N8        29.72R WCI  10
BUENA VISTA    CLOUDY    14  10  82 SE10      29.76R WCI   1
COPPER MTN     LGT SNOW   9   3  78 MISG      29.60R VSB 3/4
BERTHOUD PASS  LGT SNOW   1  -6  71 MISG      29.59R VSB 3/4
COTTONWOOD PAS CLOUDY    14   9  79 CALM      29.69R
GUNNISON       PTSUNNY   16   9  73 CALM      29.76R
KREMMLING      CLOUDY    19   9  63 N6        29.77R WCI  11
LEADVILLE      CLOUDY     7   1  76 S10       29.65R WCI  -8
MONARCH PASS   LGT SNOW   1  -4  78 MISG      29.71R
SALIDA         CLOUDY    17  11  79 SE3       29.87R
SUNLIGHT       SNOW     N/A N/A N/A W3        29.68R VSB 1/4
WILKERSON PASS CLOUDY     7   3  85 SW5       29.66R WCI  -2
$$

COZ069>075-262300-
...SAN LUIS VALLEY/SANGRE DE CRISTO MOUNTAINS...

CITY           SKY/WX    TMP DP  RH WIND       PRES   REMARKS
ALAMOSA        CLOUDY    27  12  53 N6        29.68R WCI  20
LA VETA PASS   NOT AVBL
SAGUACHE       LGT SNOW  19  18  93 CALM      29.72R VSB 3/4
$$

COZ035-036-038>040-262300-
...NORTHERN COLORADO FRONT RANGE...

CITY           SKY/WX    TMP DP  RH WIND       PRES   REMARKS
DENVER INTL AP LGT SNOW  18  13  80 N8        29.92R WCI   8
DMNS CITY PARK   N/A     19  12  73 NE7       29.93R WCI  10
AURORA         FLURRIES  18  13  84 N6        29.91R WCI   9
FRONT RANGE AP CLOUDY    19  18  93 CALM      29.92R FOG
ERIE MUNI ARPT   N/A     19  15  82 NE3       29.94S FOG
BOULDER MUN AP LGT SNOW  19  16  86 NE3       29.93R
CENTENNIAL     LGT SNOW  17  11  77 N8        29.89R FOG     WCI   7
BROOMFIELD     NOT AVBL
FORT COLLINS   MOSUNNY   19  14  79 E3        29.96R
LONGMONT       LGT SNOW  23  16  74 CALM      29.97R
$$

COZ041-046-047-076>085-087-088-262300-
...PIKES PEAK/PALMER DIVIDE AND SOUTHERN FOOTHILLS...

CITY           SKY/WX    TMP DP  RH WIND       PRES   REMARKS
COLO. SPRINGS  PTSUNNY   22   8  55 CALM      29.85R
A. F. ACADEMY  MOSUNNY   18   7  62 NW12      29.83R WCI   5
ELLICOTT       NOT AVBL
FALCON         MOSUNNY   19   9  66 N13       29.83R WCI   5
FORT CARSON    CLOUDY    22  13  66 S7        29.86R WCI  14
LIMON          FLURRIES  17  12  80 N13       29.90S WCI   4
MONUMENT HILL  LGT SNOW  14  10  85 N8        29.82R WCI   3
TRINIDAD       LGT SNOW  20  15  81 N7        29.88R WCI  11
$$

COZ042>045-048>051-090-091-262300-
...NORTHEAST COLORADO...

CITY           SKY/WX    TMP DP  RH WIND       PRES   REMARKS
GREELEY ARPT   MOSUNNY   18   9  68 NE5       29.96R WCI  11
AKRON          SNOW      16  14  92 N15       29.95R VSB 1/2 WCI   1
BURLINGTON     LGT SNOW  20  15  81 N16       29.93F WCI   6
WRAY           LGT SNOW  22  18  83 N14       30.00R WCI   9
STERLING       LGT SNOW  23  19  86 N7        30.00R WCI  15
HOLYOKE        LGT SNOW  25  19  80 N16       30.00R WCI  12
FORT MORGAN    LGT SNOW  18  14  82 N7        29.98R WCI   9
$$

COZ086-089-092>099-262300-
...SOUTHEAST COLORADO...

CITY           SKY/WX    TMP DP  RH WIND       PRES   REMARKS
PUEBLO         CLOUDY    26  16  65 VRB3      29.91R
LA JUNTA       CLOUDY    24  17  74 N12       29.95R WCI  13
LAMAR          CLOUDY    25  17  72 N14       29.95R WCI  13
SPRINGFIELD      N/A     23  20  88 N14       29.91R WCI  11
$$


USA.gov is the U.S. government's official web portal to all federal, state and local government web resources and services.